Location: Unspecified
(49.8670°N, 0.0000°E)
Time: 11:15:48
(UTC+00:00)

Tiros 1 despin weight - Visible Passes

Search period start: 16 June 2019 00:00
Search period end: 26 June 2019 00:00
Orbit: 595 x 642 km, 48.2° (Epoch: 15 June)

Date Brightness Start Highest point End Pass type
(mag) Time Alt. Az. Time Alt. Az. Time Alt. Az.
16 Jun ? 01:32:00 21° S 01:33:28 25° SSE 01:37:05 10° E visible
17 Jun ? 00:10:25 10° ESE 00:10:25 10° ESE 00:10:33 10° ESE visible
17 Jun ? 01:47:26 21° SSW 01:49:51 37° SSE 01:53:56 10° E visible
18 Jun ? 00:25:47 19° SE 00:25:47 19° SE 00:28:34 10° E visible
18 Jun ? 02:02:49 15° SW 02:06:20 52° SSE 02:10:38 10° E visible
19 Jun ? 00:41:06 29° SSE 00:41:44 30° SSE 00:45:36 10° E visible
19 Jun ? 02:18:29 10° WSW 02:22:52 65° S 02:27:16 10° E visible
19 Jun ? 23:19:18 11° ESE 23:19:18 11° ESE 23:19:47 10° ESE visible
20 Jun ? 00:56:19 28° SSW 00:58:09 43° SSE 01:02:21 10° E visible
20 Jun ? 02:35:03 10° W 02:39:27 72° S 02:43:53 10° E visible
20 Jun ? 23:34:24 22° SE 23:34:24 22° SE 23:37:10 10° E visible
21 Jun ? 01:11:24 17° WSW 01:14:40 58° SSE 01:19:00 10° E visible
21 Jun ? 02:51:39 10° W 02:56:04 71° S 03:00:28 10° ESE visible
21 Jun ? 23:49:18 33° S 23:50:00 35° SSE 23:54:03 10° E visible
22 Jun ? 01:26:49 10° WSW 01:31:14 69° S 01:35:37 10° E visible
22 Jun ? 22:26:49 16° ESE 22:26:49 16° ESE 22:28:36 10° E visible
23 Jun ? 00:03:46 21° SW 00:06:28 50° SSE 00:10:45 10° E visible
23 Jun ? 01:43:24 10° W 01:47:50 72° S 01:52:14 10° E visible
23 Jun ? 22:40:02 21° S 22:41:53 28° SSE 22:45:41 10° E visible
24 Jun ? 00:18:36 10° WSW 00:23:00 63° SSE 00:27:23 10° E visible
24 Jun ? 02:00:01 10° W 02:04:25 67° S 02:08:49 10° ESE visible
24 Jun ? 21:15:21 10° SSE 21:17:33 14° SE 21:19:44 10° ESE visible
24 Jun ? 22:54:06 10° SW 22:58:17 41° SSE 23:02:28 10° E visible
25 Jun ? 00:35:09 10° W 00:39:36 72° S 00:44:00 10° E visible
25 Jun ? 02:16:38 10° W 02:20:58 55° SSW 02:25:17 10° ESE visible
25 Jun ? 21:30:19 10° SSW 21:33:47 22° SE 21:37:14 10° E visible
25 Jun ? 23:10:25 10° WSW 23:14:48 56° SSE 23:19:08 10° E visible
